Change the Weather History Date:

Monday, June 24, 2013

  Actual Average Record
Temperature  
Mean Temperature 66 °F -  
Max Temperature 74 °F 67 °F 84 °F (2000)
Min Temperature 59 °F 48 °F 43 °F (1998)
Cooling Degree Days 2    
Growing Degree Days 16 (Base 50)    
Moisture  
Dew Point 45 °F    
Average Humidity 47    
Maximum Humidity 72    
Minimum Humidity 33    
Precipitation  
Precipitation 0.02 in - - ()
Sea Level Pressure  
Sea Level Pressure 29.66 in    
Wind  
Wind Speed 4 mph (NE)    
Max Wind Speed 9 mph    
Max Gust Speed 16 mph    
Visibility 10 miles    
Events Rain    
Averages and records for this station are not official NWS values.
T = Trace of Precipitation, MM = Missing Value Source: NWS Daily Summary

Daily Weather History Graph

Daily Weather History Graph

Search for Another Location

Airport or City:

Trip Planner

Search our weather history database for the weather conditions in past years. The results will help you decide how hot, cold, wet, or windy it might be!

Date:

Astronomy

Jun. 24, 2013 Rise Set
Actual Time 4:19 AM AKDT 12:32 AM AKDT
Civil Twilight 2:58 AM AKDT 1:54 AM AKDT
Nautical Twilight Sun does not rise Sun does not rise
Astronomical Twilight Sun does not rise Sun does not rise
Moon No Moon Rise 7:01 AM AKDT (6/24)
Length of Visible Light 22h 55m
Length of Day
20h 13m
Full, 97% of the Moon is Illuminated
Jun 24
Full
Jun 29
Last Quarter
Jul 7
New
Jul 15
First Quarter
Jul 22
Full

Hourly Weather History & Observations

Time (AKDT) Temp. Dew Point Humidity Pressure Visibility Wind Dir Wind Speed Gust Speed Precip Events Conditions
12:55 AM 65.8 °F 40.1 °F 39% 29.66 in 10.0 mi NNW 3.5 mph - N/A   Mostly Cloudy
1:24 AM 64.4 °F 42.8 °F 45% 29.66 in 10.0 mi West 3.5 mph - N/A Rain Light Rain Showers
1:44 AM 66.2 °F 39.2 °F 37% 29.66 in 10.0 mi South 3.5 mph - N/A   Mostly Cloudy
1:55 AM 63.7 °F 42.6 °F 46% 29.68 in 10.0 mi Variable 4.6 mph - N/A   Overcast
2:04 AM 59.0 °F 46.4 °F 63% 29.67 in 10.0 mi NW 6.9 mph - N/A Rain Light Rain Showers
2:45 AM 66.2 °F 39.2 °F 37% 29.65 in 10.0 mi North 6.9 mph - N/A   Mostly Cloudy
2:55 AM 67.5 °F 37.8 °F 34% 29.65 in 10.0 mi North 5.8 mph - N/A   Mostly Cloudy
3:55 AM 65.5 °F 39.4 °F 38% 29.65 in 10.0 mi Variable 1.2 mph - N/A   Overcast
4:55 AM 64.0 °F 40.3 °F 42% 29.66 in 10.0 mi Variable 1.2 mph - N/A   Mostly Cloudy
5:55 AM 63.0 °F 41.0 °F 45% 29.67 in 10.0 mi ESE 2.3 mph - N/A   Mostly Cloudy
6:25 AM 62.6 °F 41.0 °F 45% 29.67 in 10.0 mi Calm Calm - N/A Rain Light Rain
6:45 AM 62.6 °F 41.0 °F 45% 29.67 in 10.0 mi ESE 3.5 mph - N/A   Mostly Cloudy
6:55 AM 62.2 °F 41.5 °F 47% 29.67 in 10.0 mi East 1.2 mph - N/A   Mostly Cloudy
7:55 AM 61.2 °F 44.2 °F 54% 29.68 in 10.0 mi North 6.9 mph - N/A   Mostly Cloudy
8:05 AM 62.6 °F 44.6 °F 52% 29.68 in 10.0 mi ENE 5.8 mph - N/A Rain Light Rain
8:55 AM 65.3 °F 48.7 °F 55% 29.65 in 10.0 mi North 4.6 mph - 0.00 in Rain Light Rain Showers
9:25 AM 60.8 °F 51.8 °F 72% 29.67 in 10.0 mi ESE 5.8 mph - N/A   Mostly Cloudy
9:55 AM 63.5 °F 51.3 °F 64% 29.67 in 10.0 mi WSW 2.3 mph - N/A   Mostly Cloudy
10:55 AM 66.0 °F 51.3 °F 59% 29.66 in 10.0 mi WSW 4.6 mph - N/A   Mostly Cloudy
11:55 AM 69.8 °F 48.0 °F 46% 29.66 in 10.0 mi East 6.9 mph - N/A   Mostly Cloudy
12:55 PM 68.4 °F 48.6 °F 49% 29.67 in 10.0 mi ESE 4.6 mph - N/A   Mostly Cloudy
1:05 PM 68.0 °F 50.0 °F 52% 29.67 in 10.0 mi Variable 3.5 mph - N/A Rain Light Rain
1:45 PM 68.0 °F 51.8 °F 56% 29.66 in 10.0 mi Variable 2.3 mph - N/A   Mostly Cloudy
1:55 PM 69.8 °F 49.3 °F 48% 29.67 in 10.0 mi Variable 4.6 mph - N/A   Mostly Cloudy
2:55 PM 73.4 °F 45.5 °F 37% 29.65 in 10.0 mi Variable 5.8 mph - N/A   Mostly Cloudy
3:55 PM 74.5 °F 43.3 °F 33% 29.64 in 10.0 mi Variable 5.8 mph - N/A   Scattered Clouds
4:55 PM 74.3 °F 47.1 °F 38% 29.64 in 10.0 mi SSE 4.6 mph - N/A   Mostly Cloudy
5:55 PM 69.6 °F 46.8 °F 44% 29.66 in 10.0 mi NE 8.1 mph 16.1 mph N/A Rain Light Rain
6:25 PM 68.0 °F 50.0 °F 52% 29.65 in 10.0 mi NNE 3.5 mph - N/A   Mostly Cloudy
6:55 PM 70.9 °F 45.9 °F 41% 29.65 in 10.0 mi NNE 9.2 mph 16.1 mph 0.00 in   Mostly Cloudy
7:55 PM 71.2 °F 44.6 °F 38% 29.64 in 10.0 mi Variable 5.8 mph - N/A   Mostly Cloudy
8:55 PM 70.3 °F 46.0 °F 42% 29.64 in 10.0 mi Variable 5.8 mph - N/A   Scattered Clouds
9:55 PM 69.4 °F 49.1 °F 48% 29.64 in 10.0 mi East 3.5 mph - N/A   Partly Cloudy
10:55 PM 68.9 °F 48.6 °F 48% 29.65 in 10.0 mi Variable 3.5 mph - N/A   Partly Cloudy
11:55 PM 68.5 °F 47.8 °F 48% 29.65 in 10.0 mi NNW 4.6 mph - N/A   Mostly Cloudy